Terminal Aerodrome Forecast
Issued by NWS

Home | Current Version | Previous Version | Graphics & Text | Print | Product List | Glossary On
Versions: 1 2 3 4 5 6 7 8 9 10 11 12 13 14 15 16 17 18 19
000
FTUS43 KGRB 261100
TAFAUW
TAF
KAUW 261140Z 2612/2712 17007KT P6SM SCT025 OVC050
      TEMPO 2613/2614 3SM -SN OVC020
     FM261400 15009KT 1 1/2SM -SN SCT009 OVC015
     FM262000 14005KT 3SM -SN BR SCT009 OVC015
     FM270500 VRB03KT 5SM BR OVC006
      TEMPO 2705/2709 5SM -FZDZSN=

USA.gov is the U.S. government's official web portal to all federal, state and local government web resources and services.